Madison, WI

6:22 PM CDT on September 20, 2019 (GMT -0500)
Dane County Regional-Truax

Weather History for KMSN - July, 2019

Change the Weather History Date:

Thursday, July 18, 2019

  Actual Average Record
Temperature  
Mean Temperature 78 °F 72 °F  
Max Temperature 86 °F 82 °F 95 °F (1894)
Min Temperature 71 °F 61 °F 47 °F (1979)
Degree Days  
Heating Degree Days 0 0  
Month to date heating degree days 0  
Since 1 June heating degree days 60  
Since 1 July heating degree days 0  
Cooling Degree Days 14 7  
Month to date cooling degree days 124  
Year to date cooling degree days 274  
Since 1 June cooling degree days 244  
Growing Degree Days 28 (Base 50)    
Moisture  
Dew Point 70 °F    
Average Humidity 83    
Maximum Humidity 93    
Minimum Humidity 63    
Precipitation  
Precipitation 0.94 in 0.13 in 1.50 in (1996)
Month to date precipitation 2.51  
Year to date precipitation 18.88  
Snow  
Snow 0.00 in 0.00 in 0.00 in ()
Month to date snowfall 0.0  
Since 1 June snowfall 0.0  
Since 1 July snowfall 0.0  
Snow Depth -    
Sea Level Pressure  
Sea Level Pressure 29.80 in    
Wind  
Wind Speed 10 mph (SSW)    
Max Wind Speed 26 mph    
Max Gust Speed 39 mph    
Visibility 8 miles    
Events Rain , Thunderstorm    
T = Trace of Precipitation, MM = Missing Value Source: NWS Daily Summary

Daily Weather History Graph

Daily Weather History Graph

Search for Another Location

Airport or City:

Astronomy

Jul. 18, 2019 Rise Set
Actual Time 5:33 AM CDT 8:32 PM CDT
Civil Twilight 4:59 AM CDT 9:06 PM CDT
Nautical Twilight 4:16 AM CDT 9:49 PM CDT
Astronomical Twilight 3:25 AM CDT 10:40 PM CDT
Moon 9:56 PM CDT (7/18) 7:03 AM CDT (7/18)
Length of Visible Light 16h 06m
Length of Day
14h 59m
Full, 97% of the Moon is Illuminated
Jul 18
Full
Jul 24
Last Quarter
Jul 31
New
Aug 7
First Quarter
Aug 15
Full

Hourly Weather History & Observations

Time (CDT) Temp. Heat Index Dew Point Humidity Pressure Visibility Wind Dir Wind Speed Gust Speed Precip Events Conditions
12:53 AM 78.1 °F - 70.0 °F 76% 29.84 in 10.0 mi South 6.9 mph - N/A   Scattered Clouds
1:53 AM 77.0 °F - 70.0 °F 79% 29.82 in 10.0 mi SSW 3.5 mph - N/A   Partly Cloudy
2:53 AM 75.9 °F - 70.0 °F 82% 29.80 in 10.0 mi South 8.1 mph - N/A   Partly Cloudy
3:53 AM 77.0 °F - 69.1 °F 76% 29.78 in 10.0 mi South 10.4 mph - N/A   Clear
4:22 AM 77.0 °F - 68.0 °F 74% 29.81 in 10.0 mi SSW 8.1 mph - 0.00 in Rain , Thunderstorm Light Rain
4:45 AM 73.9 °F - 69.1 °F 85% 29.87 in 2.5 mi WNW 9.2 mph - 0.05 in Rain , Thunderstorm Heavy Thunderstorms and Rain
4:53 AM 73.0 °F - 70.0 °F 90% 29.86 in 2.0 mi WNW 10.4 mph 20.7 mph 0.12 in Rain , Thunderstorm Heavy Thunderstorms and Rain
4:58 AM 72.0 °F - 70.0 °F 93% 29.87 in 1.5 mi Variable 4.6 mph 20.7 mph 0.05 in Rain , Thunderstorm Heavy Thunderstorms and Rain
5:02 AM 72.0 °F - 70.0 °F 93% 29.86 in 1.0 mi WNW 11.5 mph 20.7 mph 0.14 in Rain , Thunderstorm Heavy Thunderstorms and Rain
5:09 AM 71.1 °F - 69.1 °F 93% 29.87 in 0.8 mi NNW 10.4 mph 20.7 mph 0.47 in Rain , Thunderstorm Heavy Thunderstorms and Rain
5:13 AM 71.1 °F - 69.1 °F 93% 29.87 in 1.0 mi NNW 9.2 mph 20.7 mph 0.57 in Rain , Thunderstorm Heavy Thunderstorms and Rain
5:19 AM 71.1 °F - 69.1 °F 93% 29.86 in 2.0 mi NW 6.9 mph 20.7 mph 0.64 in Rain , Thunderstorm Heavy Thunderstorms and Rain
5:29 AM 71.1 °F - 68.0 °F 90% 29.84 in 7.0 mi NNE 9.2 mph - 0.67 in Rain , Thunderstorm Light Thunderstorms and Rain
5:53 AM 71.1 °F - 68.0 °F 90% 29.83 in 9.0 mi ENE 8.1 mph - 0.70 in Rain , Thunderstorm Light Thunderstorms and Rain
6:46 AM 71.1 °F - 68.0 °F 90% 29.83 in 6.0 mi SE 10.4 mph - 0.09 in Rain Light Rain
6:53 AM 71.1 °F - 69.1 °F 93% 29.83 in 6.0 mi SSE 5.8 mph - 0.11 in Rain Light Rain
7:21 AM 71.1 °F - 68.0 °F 90% 29.83 in 4.0 mi SE 9.2 mph - 0.10 in Rain , Thunderstorm Thunderstorms and Rain
7:49 AM 71.6 °F - 68.0 °F 88% 29.88 in 9.0 mi West 3.5 mph - 0.14 in Rain , Thunderstorm Light Thunderstorms and Rain
7:53 AM 71.1 °F - 68.0 °F 90% 29.87 in 9.0 mi West 4.6 mph - 0.15 in Rain , Thunderstorm Light Thunderstorms and Rain
8:09 AM 71.1 °F - 69.1 °F 93% 29.87 in 6.0 mi Calm Calm - 0.01 in Rain Light Rain
8:13 AM 71.1 °F - 69.1 °F 93% 29.88 in 5.0 mi Calm Calm - 0.02 in Rain , Thunderstorm Light Thunderstorms and Rain
8:34 AM 71.1 °F - 68.0 °F 90% 29.86 in 6.0 mi SSE 9.2 mph - 0.05 in Rain , Thunderstorm Light Thunderstorms and Rain
8:40 AM 71.1 °F - 69.1 °F 93% 29.84 in 7.0 mi South 15.0 mph - 0.06 in Rain Light Rain
8:53 AM 71.1 °F - 69.1 °F 93% 29.79 in 10.0 mi South 21.9 mph - 0.07 in Rain Light Rain
8:59 AM 71.1 °F - 69.1 °F 93% 29.79 in 10.0 mi South 26.5 mph 33.4 mph 0.00 in Rain Light Rain
9:40 AM 72.0 °F - 69.1 °F 91% 29.85 in 10.0 mi South 15.0 mph 32.2 mph 0.04 in Rain Light Rain
9:53 AM 72.0 °F - 69.1 °F 91% 29.81 in 9.0 mi South 16.1 mph 29.9 mph 0.04 in Rain Light Rain
10:42 AM 72.0 °F - 69.1 °F 91% 29.83 in 10.0 mi South 12.7 mph - 0.02 in Rain , Thunderstorm Light Thunderstorms and Rain
10:53 AM 72.0 °F - 69.1 °F 91% 29.82 in 10.0 mi South 11.5 mph - 0.02 in Rain , Thunderstorm Light Thunderstorms and Rain
11:08 AM 72.0 °F - 69.1 °F 91% 29.79 in 10.0 mi South 18.4 mph 28.8 mph 0.01 in Rain Light Rain
11:28 AM 73.9 °F - 70.0 °F 87% 29.81 in 10.0 mi South 20.7 mph 32.2 mph 0.01 in   Mostly Cloudy
11:42 AM 73.9 °F - 70.0 °F 87% 29.80 in 10.0 mi South 21.9 mph 39.1 mph 0.01 in   Mostly Cloudy
11:53 AM 75.9 °F - 70.0 °F 82% 29.79 in 10.0 mi South 20.7 mph 35.7 mph 0.01 in   Mostly Cloudy
12:12 PM 75.9 °F - 69.1 °F 79% 29.79 in 10.0 mi South 24.2 mph 35.7 mph N/A   Mostly Cloudy
12:53 PM 78.1 °F - 70.0 °F 76% 29.73 in 10.0 mi South 21.9 mph 29.9 mph N/A   Mostly Cloudy
1:53 PM 81.0 °F 84.9 °F 71.1 °F 72% 29.74 in 10.0 mi South 12.7 mph 24.2 mph N/A   Mostly Cloudy
2:53 PM 84.9 °F 90.1 °F 71.1 °F 63% 29.75 in 10.0 mi SW 13.8 mph 20.7 mph N/A   Mostly Cloudy
3:53 PM 84.0 °F 89.6 °F 72.0 °F 67% 29.75 in 10.0 mi SW 9.2 mph - N/A   Overcast
4:53 PM 86.0 °F 93.0 °F 73.0 °F 65% 29.73 in 10.0 mi SSW 10.4 mph 17.3 mph N/A   Mostly Cloudy
5:53 PM 86.0 °F 93.8 °F 73.9 °F 67% 29.72 in 10.0 mi Variable 4.6 mph 17.3 mph N/A   Scattered Clouds
6:53 PM 86.0 °F 95.1 °F 75.0 °F 70% 29.71 in 10.0 mi SSW 8.1 mph - N/A   Partly Cloudy
7:53 PM 84.9 °F 93.3 °F 75.0 °F 72% 29.71 in 10.0 mi South 8.1 mph - N/A   Partly Cloudy
8:53 PM 82.9 °F 90.8 °F 75.9 °F 79% 29.72 in 10.0 mi South 5.8 mph - N/A   Scattered Clouds
9:53 PM 82.9 °F 90.8 °F 75.9 °F 79% 29.73 in 10.0 mi South 8.1 mph - N/A   Partly Cloudy
10:53 PM 82.0 °F 89.4 °F 75.9 °F 82% 29.73 in 10.0 mi South 5.8 mph - N/A   Clear
11:53 PM 82.9 °F 90.8 °F 75.9 °F 79% 29.72 in 10.0 mi SSW 5.8 mph - N/A   Clear